"2010-05-05 00:00:00",83980,13.54,303.1,3.543,1.06,14.62,105.9468,14.5,15.45,28.09,0,110.6,13.28,15.30,265.1
"2010-05-05 00:00:30",83981,14.48,305.2,2.732,1.153,14.65,105.9468,14.5,15.46,27.85,0,110.6,13.28,15.30,267.2
"2010-05-05 00:01:00",83982,14.76,305.3,1.807,0.622,14.58,105.9476,14.5,15.45,27.44,0,110.6,13.28,15.30,267.3
"2010-05-05 00:01:30",83983,14.38,304.4,5.061,0.673,14.65,105.948,14.5,15.44,27.75,0,110.6,13.29,15.30,266.4
"2010-05-05 00:02:00",83984,15.17,301.8,3.665,0.901,14.64,105.9474,14.5,15.44,27.63,0,110.6,13.29,15.30,263.8
"2010-05-05 00:02:30",83985,17.1,306.3,3.861,0.547,14.63,105.948,14.5,15.46,27.65,0,110.6,13.29,15.30,268.3
"2010-05-05 00:03:00",83986,15.13,301.7,3.435,0.675,14.68,105.9474,14.5,15.44,27.65,0,110.6,13.29,15.30,263.7
"2010-05-05 00:03:30",83987,14.78,301.6,3.438,0.952,14.64,105.9451,14.49,15.44,27.58,0,110.6,13.29,15.29,263.6
"2010-05-05 00:04:00",83988,14.41,298.5,2.992,0.847,14.64,105.9412,14.48,15.45,27.8,0,110.6,13.3,15.28,260.5
"2010-05-05 00:04:30",83989,14.22,295.5,2.847,0.98,14.69,105.9395,14.48,15.44,28.14,0,110.6,13.3,15.28,257.5
"2010-05-05 00:05:00",83990,13.67,285.8,5.731,0.871,14.71,105.9375,14.47,15.43,28.27,0,110.6,13.3,15.28,247.8
"2010-05-05 00:05:30",83991,11.67,290.2,2.987,0.765,14.57,105.9187,14.42,15.42,27.58,0,110.6,13.3,15.23,252.2
"2010-05-05 00:06:00",83992,12.41,291.9,1.959,0.604,14.51,105.915,14.42,15.43,28.01,0,110.6,13.3,15.22,253.9
"2010-05-05 00:06:30",83993,14.06,292.2,2.501,1.863,14.67,105.9142,14.41,15.43,28.54,0,110.6,13.3,15.22,254.2
"2010-05-05 00:07:00",83994,14.1,289.1,6.229,0.876,14.58,105.9142,14.41,15.41,28.74,0,110.6,13.3,15.22,251.1
"2010-05-05 00:07:30",83995,16.62,284.4,1.765,0.491,14.44,105.9142,14.41,15.4,27.99,0,110.6,13.3,15.22,246.4
"2010-05-05 00:08:00",83996,17.28,286,1.675,0.447,14.45,105.9142,14.41,15.4,27.8,0,110.6,13.3,15.22,248.0
"2010-05-05 00:08:30",83997,16.97,287.4,2.297,0.444,14.41,105.9065,14.39,15.39,28.17,0,110.6,13.3,15.20,249.4
"2010-05-05 00:09:00",83998,16.82,287.2,1.493,0.678,14.52,105.8866,14.34,15.39,28.36,0,110.6,13.3,15.14,249.2
"2010-05-05 00:09:30",83999,15.52,293,4.26,1.093,14.54,105.8804,14.33,15.35,28.61,0,110.6,13.3,15.13,255.0
"2010-05-05 00:10:00",84000,13.4,303.7,2.761,0.755,14.51,105.8804,14.33,15.35,28.78,0,110.6,13.3,15.13,265.7
"2010-05-05 00:10:30",84001,13.28,303.7,2.184,0.525,14.53,105.8775,14.32,15.32,28.81,0,110.6,13.3,15.12,265.7
"2010-05-05 00:11:00",84002,13.29,294.6,3.614,0.839,14.55,105.8606,14.28,15.31,28.99,0,110.6,13.3,15.08,256.6
"2010-05-05 00:11:30",84003,13.98,299.1,3.326,0.779,14.56,105.8491,14.25,15.29,29.44,0,110.6,13.3,15.05,261.1
"2010-05-05 00:12:00",84004,14.01,291.2,1.857,0.587,14.6,105.8466,14.24,15.27,29.33,0,110.6,13.3,15.04,253.2
"2010-05-05 00:12:30",84005,13.83,294.8,2.529,0.925,14.61,105.8466,14.24,15.28,29.25,0,110.6,13.3,15.04,256.8
"2010-05-05 00:13:00",84006,15.78,299.3,2.689,2,14.43,105.8466,14.24,15.23,29.33,0,110.6,13.3,15.04,261.3
"2010-05-05 00:13:30",84007,18.78,300.9,3.912,0.989,14.3,105.8466,14.24,15.24,29.25,0,110.6,13.29,15.04,262.9
"2010-05-05 00:14:00",84008,19.32,296.8,6.612,1.196,15.22,105.8463,14.24,15.37,29.64,0,110.5,13.25,15.04,258.8
"2010-05-05 00:14:30",84009,20.11,301.9,7.568,1.494,16.78,105.8367,14.21,15.31,29.64,0,110.6,13.25,15.02,263.9
"2010-05-05 00:15:00",84010,18.26,297.2,6.998,1.686,15.81,105.8145,14.16,15.41,29.78,0,110.6,13.25,14.96,259.2
"2010-05-05 00:15:30",84011,16.39,300.2,5.871,2.645,14.8,105.8128,14.15,15.27,29.9,0,110.6,13.25,14.95,262.2
"2010-05-05 00:16:00",84012,15.36,298.5,4.428,1.483,13.96,105.8108,14.15,15.22,30.07,0,110.6,13.26,14.95,260.5
"2010-05-05 00:16:30",84013,16.21,307.7,7.401,1.515,15.07,105.7821,14.07,15.33,30.4,0,110.6,13.25,14.88,269.7
"2010-05-05 00:17:00",84014,15.11,301.8,7.58,0.866,14.04,105.779,14.07,15.17,30.45,0,110.6,13.25,14.87,263.8
"2010-05-05 00:17:30",84015,15.83,300.3,6.736,1.062,14.23,105.7719,14.05,15.32,30.99,0,110.6,13.25,14.85,262.3
"2010-05-05 00:18:00",84016,18.05,304.5,5.978,2.145,16.06,105.7457,13.98,15.22,31.02,0,110.6,13.25,14.78,266.5
"2010-05-05 00:18:30",84017,20.43,302.6,7.453,1.512,15.15,105.7452,13.98,15.16,30.66,0,110.6,13.25,14.78,264.6
"2010-05-05 00:19:00",84018,18.82,298.8,6.825,1.152,15.17,105.7255,13.93,15.25,31.06,0,110.6,13.25,14.73,260.8
"2010-05-05 00:19:30",84019,17.93,301.8,6.702,2.722,14.65,105.7105,13.89,15.01,31.05,0,110.6,13.25,14.69,263.8
"2010-05-05 00:20:00",84020,13.84,303.3,7.543,1.18,13.96,105.6838,13.82,15.09,31.34,0,110.6,13.25,14.62,265.3
"2010-05-05 00:20:30",84021,16,296.5,9.52,2.045,13.9,105.6768,13.8,14.89,31.49,0,110.6,13.25,14.61,258.5
"2010-05-05 00:21:00",84022,16.47,291.9,6.513,1.471,13.62,105.6477,13.73,14.97,31.53,0,110.6,13.26,14.53,253.9
"2010-05-05 00:21:30",84023,15.82,296.8,9.02,2.399,15.01,105.6294,13.68,14.9,31.49,0,110.6,13.26,14.48,258.8
"2010-05-05 00:22:00",84024,14.26,299.1,10.01,3.619,16.03,105.61,13.63,15.02,32.09,0,110.5,13.26,14.43,261.1
"2010-05-05 00:22:30",84025,17.33,306.3,7.896,1.346,16.25,105.5968,13.6,14.97,31.82,0,110.5,13.26,14.40,268.3
"2010-05-05 00:23:00",84026,15.27,298.9,5.133,1.2,13.24,105.5765,13.55,14.9,31.78,0,110.5,13.26,14.35,260.9
"2010-05-05 00:23:30",84027,16.73,302,6.462,1.15,14.58,105.5737,13.54,14.7,31.81,0,110.6,13.25,14.34,264.0
"2010-05-05 00:24:00",84028,16.52,303.8,7.172,1.691,14.68,105.5514,13.48,14.76,31.76,0,110.6,13.25,14.28,265.8
"2010-05-05 00:24:30",84029,14.99,299.9,1.921,1.031,12.67,105.5424,13.46,14.57,31.36,0,110.6,13.29,14.26,261.9
"2010-05-05 00:25:00",84030,14.07,302.3,2.769,1.229,12.81,105.5404,13.46,14.54,31.56,0,110.6,13.29,14.25,264.3
"2010-05-05 00:25:30",84031,18.66,310.6,8.65,1.609,15.46,105.523,13.41,14.68,31.53,0,110.6,13.26,14.21,272.6
"2010-05-05 00:26:00",84032,17.56,311.5,7.803,1.784,16.1,105.5098,13.38,14.7,31.54,0,110.6,13.26,14.18,273.5
"2010-05-05 00:26:30",84033,17.33,305.7,7.031,1.341,16.81,105.5098,13.38,14.74,31.83,0,110.6,13.26,14.18,267.7
"2010-05-05 00:27:00",84034,16.31,303,10.02,1.934,15.23,105.5134,13.39,14.55,31.63,0,110.6,13.26,14.19,265.0
"2010-05-05 00:27:30",84035,13.23,299.4,8.17,1.879,14.26,105.5152,13.39,14.53,31.69,0,110.5,13.26,14.19,261.4
"2010-05-05 00:28:00",84036,14.06,304.6,6.036,1.852,14.63,105.5161,13.39,14.59,32.25,0,110.6,13.26,14.19,266.6
"2010-05-05 00:28:30",84037,15.65,296.8,4.156,1.447,12.52,105.5111,13.38,14.41,31.68,0,110.5,13.29,14.18,258.8
"2010-05-05 00:29:00",84038,14.82,302.1,3.902,0.572,12.66,105.5107,13.38,14.41,31.41,0,110.5,13.29,14.18,264.1
"2010-05-05 00:29:30",84039,15.02,302,5.916,1.108,12.97,105.511,13.38,14.39,31.31,0,110.5,13.29,14.18,264.0
"2010-05-05 00:30:00",84040,16.1,303.6,6.891,2.283,15.78,105.5034,13.36,14.63,31.62,0,110.5,13.25,14.16,265.6
"2010-05-05 00:30:30",84041,16.68,309.5,7.57,1.436,17.04,105.5024,13.36,14.6,31.86,0,110.5,13.25,14.16,271.5
"2010-05-05 00:31:00",84042,14.01,308.4,5.841,1.045,14.12,105.5042,13.36,14.51,31.88,0,110.5,13.25,14.16,270.4
"2010-05-05 00:31:30",84043,14.88,307.3,9.17,1.109,15.55,105.5031,13.36,14.6,31.75,0,110.5,13.25,14.16,269.3
"2010-05-05 00:32:00",84044,14.24,314.3,7.295,1.286,16.6,105.5054,13.37,14.65,31.74,0,110.5,13.25,14.16,276.3
"2010-05-05 00:32:30",84045,12.78,313.8,7.382,1.659,14.55,105.518,13.4,14.54,31.6,0,110.5,13.25,14.20,275.8
"2010-05-05 00:33:00",84046,13.91,297,6.825,0.682,12.44,105.5188,13.4,14.38,31.27,0,110.5,13.29,14.20,259.0
"2010-05-05 00:33:30",84047,14.03,301.4,7.753,0.766,12.55,105.523,13.41,14.38,31.4,0,110.5,13.29,14.21,263.4
"2010-05-05 00:34:00",84048,13.61,312.6,6.761,0.877,13.25,105.5297,13.43,14.38,31.61,0,110.5,13.25,14.23,274.6
"2010-05-05 00:34:30",84049,12.44,319.4,8.1,1.497,15.2,105.5286,13.43,14.53,31.92,0,110.5,13.25,14.22,281.4
"2010-05-05 00:35:00",84050,11.62,319.2,6.242,1.614,15.66,105.5306,13.43,14.49,31.97,0,110.5,13.26,14.23,281.2
"2010-05-05 00:35:30",84051,11.8,301,5.958,1.127,13.67,105.536,13.44,14.53,31.99,0,110.5,13.29,14.24,263.0
"2010-05-05 00:36:00",84052,14.23,298.5,9.24,0.974,15.32,105.5409,13.46,14.43,31.84,0,110.5,13.26,14.26,260.5
"2010-05-05 00:36:30",84053,13.15,300.1,9.16,0.863,14.43,105.5437,13.46,14.55,31.66,0,110.5,13.26,14.26,262.1
"2010-05-05 00:37:00",84054,13.6,316.5,8.11,1.392,16.49,105.5437,13.46,14.6,31.96,0,110.5,13.26,14.26,278.5
"2010-05-05 00:37:30",84055,13.34,303.7,7.974,1.859,14.3,105.5412,13.46,14.5,31.94,0,110.5,13.26,14.26,265.7
"2010-05-05 00:38:00",84056,13.73,305.5,4.604,1.264,12.52,105.5423,13.46,14.4,31.75,0,110.5,13.3,14.26,267.5
"2010-05-05 00:38:30",84057,17.22,306.8,6.946,1.976,14.52,105.544,13.47,14.52,31.78,0,110.5,13.26,14.26,268.8
"2010-05-05 00:39:00",84058,20.71,297.6,7.651,1.139,15,105.5437,13.46,14.53,31.29,0,110.5,13.26,14.26,259.6
"2010-05-05 00:39:30",84059,17.13,309.6,10.25,1.551,15.73,105.5417,13.46,14.57,31.62,0,110.5,13.26,14.26,271.6
"2010-05-05 00:40:00",84060,14.21,312.2,5.983,1.535,13.42,105.5378,13.45,14.48,31.94,0,110.5,13.26,14.25,274.2
"2010-05-05 00:40:30",84061,15.93,310,11.72,1.384,14.79,105.5313,13.43,14.48,31.74,0,110.5,13.26,14.23,272.0
"2010-05-05 00:41:00",84062,16.54,308,10.14,1.283,16.03,105.5282,13.42,14.63,31.95,0,110.5,13.26,14.22,270.0
"2010-05-05 00:41:30",84063,15.96,313.8,7.116,1.707,15.29,105.5229,13.41,14.56,31.95,0,110.5,13.26,14.21,275.8
"2010-05-05 00:42:00",84064,15,303.7,3.919,1.209,13.94,105.5136,13.39,14.49,32.17,0,110.5,13.26,14.19,265.7
"2010-05-05 00:42:30",84065,18.62,312.9,5.188,4.815,14.6,105.5105,13.38,14.53,31.81,0,110.5,13.26,14.18,274.9
"2010-05-05 00:43:00",84066,20.88,307.3,4.982,0.731,13.73,105.5105,13.38,14.47,31.03,0,110.5,13.26,14.18,269.3
"2010-05-05 00:43:30",84067,20.49,306.5,7.266,1.052,14.03,105.5105,13.38,14.36,31.09,0,110.5,13.26,14.18,268.5
"2010-05-05 00:44:00",84068,19.98,307.7,7.078,1.164,15.68,105.5105,13.38,14.65,31.7,0,110.5,13.26,14.18,269.7
"2010-05-05 00:44:30",84069,20.74,303.2,6.913,1.538,15.51,105.5096,13.38,14.58,30.64,0,110.5,13.26,14.18,265.2
"2010-05-05 00:45:00",84070,21.78,311,6.752,1.27,16.42,105.5034,13.36,14.56,30.69,0,110.5,13.26,14.16,273.0
"2010-05-05 00:45:30",84071,22.5,305.4,7.294,1.279,16.24,105.4874,13.32,14.57,31.01,0,110.5,13.26,14.12,267.4
"2010-05-05 00:46:00",84072,20.94,305.1,7.581,1.496,15.7,105.4775,13.29,14.57,31.17,0,110.5,13.26,14.09,267.1
"2010-05-05 00:46:30",84073,19.27,294.1,2.713,0.508,12.45,105.4767,13.29,14.36,31.17,0,110.5,13.29,14.09,256.1
"2010-05-05 00:47:00",84074,20.38,296.2,2.328,0.376,12.85,105.4767,13.29,14.43,30.94,0,110.5,13.29,14.09,258.2
"2010-05-05 00:47:30",84075,20.3,308.3,5.705,1.323,15.83,105.4767,13.29,14.43,31.56,0,110.6,13.25,14.09,270.3
"2010-05-05 00:48:00",84076,20.66,309.5,6.346,1.856,16.57,105.4767,13.29,14.46,31.62,0,110.5,13.25,14.09,271.5
"2010-05-05 00:48:30",84077,19.37,299.8,6.602,1.147,14.12,105.4671,13.27,14.45,31.85,0,110.6,13.25,14.07,261.8
"2010-05-05 00:49:00",84078,19.45,313.2,5.235,1.297,17.02,105.4448,13.21,14.58,32.3,0,110.5,13.25,14.01,275.2
"2010-05-05 00:49:30",84079,18.16,314.5,7.517,1.991,15.9,105.4429,13.21,14.48,32.84,0,110.5,13.25,14.00,276.5
"2010-05-05 00:50:00",84080,16.17,305,2.56,1.724,11.94,105.4429,13.21,14.23,32.8,0,110.5,13.25,14.00,267.0
"2010-05-05 00:50:30",84081,18.93,307.4,7.355,2.017,14.11,105.4369,13.19,14.27,33.04,0,110.5,13.25,13.99,269.4
"2010-05-05 00:51:00",84082,18.3,308.9,4.708,1.623,14.03,105.4119,13.13,14.38,33.25,0,110.5,13.25,13.92,270.9
"2010-05-05 00:51:30",84083,19.64,315.7,8.35,2.032,15.79,105.4091,13.12,14.37,33.17,0,110.5,13.25,13.92,277.7
"2010-05-05 00:52:00",84084,17.91,313.5,7.014,1.413,15.8,105.4037,13.11,14.43,33.51,0,110.5,13.26,13.90,275.5
"2010-05-05 00:52:30",84085,18.68,316.7,3.845,1.17,17.04,105.3814,13.05,14.46,33.89,0,110.5,13.26,13.85,278.7
"2010-05-05 00:53:00",84086,16.39,310.6,8.19,2.101,13.75,105.3752,13.03,14.17,33.57,0,110.5,13.26,13.83,272.6
"2010-05-05 00:53:30",84087,13.71,301.9,6.335,1.128,12.75,105.3752,13.03,14.26,34.38,0,110.5,13.26,13.83,263.9
"2010-05-05 00:54:00",84088,18.2,309.1,5.705,1.786,14.29,105.3626,13,14.14,34.02,0,110.5,13.26,13.80,271.1
"2010-05-05 00:54:30",84089,18.74,303,2.398,1.644,12.74,105.3429,12.95,14.17,33.97,0,110.5,13.27,13.75,265.0
"2010-05-05 00:55:00",84090,21.22,315.7,5.072,1.142,17.22,105.3417,12.95,14.34,33.85,0,110.5,13.27,13.74,277.7
"2010-05-05 00:55:30",84091,20.49,313.8,11.75,1.72,16.46,105.3361,12.93,14.31,33.98,0,110.5,13.27,13.73,275.8
"2010-05-05 00:56:00",84092,19.07,317.6,6.231,1.219,17.28,105.3161,12.88,14.34,33.96,0,110.5,13.27,13.68,279.6
"2010-05-05 00:56:30",84093,19.07,306.8,7.131,2.183,14.68,105.3079,12.86,14.15,34.4,0,110.5,13.27,13.66,268.8
"2010-05-05 00:57:00",84094,18.63,308.3,3.41,0.952,12.17,105.3088,12.86,14,34.18,0,110.5,13.27,13.66,270.3
"2010-05-05 00:57:30",84095,18.02,307.1,1.706,0.503,12.43,105.3023,12.85,14.02,33.86,0,110.5,13.3,13.64,269.1
"2010-05-05 00:58:00",84096,19.46,314.5,6.672,1.826,15.54,105.2833,12.8,14.08,34.24,0,110.5,13.27,13.59,276.5
"2010-05-05 00:58:30",84097,18.3,317.1,6.639,0.901,17.09,105.2777,12.78,14.22,34.83,0,110.5,13.27,13.58,279.1
"2010-05-05 00:59:00",84098,17.15,323,6.608,1.102,16.1,105.281,12.79,14.11,35.05,0,110.5,13.27,13.59,285.0
"2010-05-05 00:59:30",84099,17.85,305.5,5.72,1.714,13.42,105.283,12.8,14.09,34.88,0,110.5,13.27,13.59,267.5
"2010-05-05 01:00:00",84100,18.27,316.3,6.719,1.614,14.44,105.2848,12.8,13.94,34.38,0,110.5,13.27,13.60,278.3
"2010-05-05 01:00:30",84101,16.97,319.1,5.255,1.985,14.67,105.2813,12.79,14.05,35.06,0,110.5,13.27,13.59,281.1
"2010-05-05 01:01:00",84102,17.33,310.2,7.077,2.886,13.89,105.2625,12.74,14.04,34.73,0,110.5,13.27,13.54,272.2
"2010-05-05 01:01:30",84103,21.08,320.5,4.665,1.156,16.04,105.2572,12.73,14.08,33.81,0,110.5,13.27,13.53,282.5
"2010-05-05 01:02:00",84104,20.72,319.3,6.588,1.293,16.5,105.2599,12.74,14.05,33.99,0,110.5,13.27,13.53,281.3
"2010-05-05 01:02:30",84105,18.28,313.8,7.141,1.774,14.73,105.264,12.75,13.98,34.72,0,110.5,13.27,13.54,275.8
"2010-05-05 01:03:00",84106,17.11,312.5,7.595,1.267,14.24,105.2655,12.75,14,34.55,0,110.5,13.27,13.55,274.5
"2010-05-05 01:03:30",84107,18.86,315.3,7.766,0.944,14.45,105.2646,12.75,13.95,34.64,0,110.5,13.27,13.55,277.3
"2010-05-05 01:04:00",84108,18.14,309.8,6.16,1.766,13.26,105.2679,12.76,13.93,34.54,0,110.5,13.26,13.55,271.8
"2010-05-05 01:04:30",84109,23.72,321.7,6.912,2.337,15.78,105.2652,12.75,14.02,34.23,0,110.5,13.26,13.55,283.7
"2010-05-05 01:05:00",84110,24.28,313.7,5.356,1.714,17.13,105.2552,12.73,14.03,33.94,0,110.5,13.26,13.52,275.7
"2010-05-05 01:05:30",84111,23.28,316.7,5.188,1.239,16.09,105.2408,12.69,14.03,34,0,110.5,13.26,13.49,278.7
"2010-05-05 01:06:00",84112,23.55,311.1,9.99,1.545,15.13,105.2403,12.69,13.97,33.88,0,110.5,13.26,13.48,273.1
"2010-05-05 01:06:30",84113,20.6,317.5,9.15,1.905,15.46,105.2412,12.69,13.92,34.33,0,110.5,13.26,13.49,279.5
"2010-05-05 01:07:00",84114,23.19,314.3,6.115,1.879,14.58,105.2415,12.69,13.83,33.94,0,110.5,13.26,13.49,276.3
"2010-05-05 01:07:30",84115,23.82,312.8,8.28,1.634,14.68,105.2418,12.69,13.94,33.84,0,110.5,13.26,13.49,274.8
"2010-05-05 01:08:00",84116,22.69,317.3,5.94,2.071,16.56,105.2376,12.68,13.94,34.06,0,110.5,13.26,13.48,279.3
"2010-05-05 01:08:30",84117,21.23,320.8,5.524,1.788,16.66,105.2147,12.62,13.97,34.59,0,110.5,13.26,13.42,282.8
"2010-05-05 01:09:00",84118,23.32,323.3,7.153,1.738,16.68,105.208,12.6,13.97,34.51,0,110.5,13.27,13.40,285.3
"2010-05-05 01:09:30",84119,19.67,308.7,6.852,1.71,14.08,105.208,12.6,13.69,34.42,0,110.5,13.27,13.40,270.7
"2010-05-05 01:10:00",84120,22.53,313.6,7.826,2.09,15.08,105.2066,12.6,13.85,34.68,0,110.5,13.27,13.40,275.6
"2010-05-05 01:10:30",84121,22.78,315.5,7.738,2.022,15.02,105.1868,12.55,13.85,34.8,0,110.5,13.27,13.35,277.5
"2010-05-05 01:11:00",84122,21.41,313,6.677,1.559,15.59,105.1742,12.52,13.85,35.1,0,110.5,13.27,13.31,275.0
"2010-05-05 01:11:30",84123,24.62,318.1,3.045,1.215,16.34,105.1719,12.51,13.87,35,0,110.5,13.27,13.31,280.1
"2010-05-05 01:12:00",84124,24.32,315.1,4.234,0.982,16.21,105.1443,12.44,13.86,34.85,0,110.5,13.27,13.24,277.1
"2010-05-05 01:12:30",84125,23.58,316.8,2.168,0.956,16.26,105.1403,12.43,13.79,34.92,0,110.5,13.27,13.23,278.8
"2010-05-05 01:13:00",84126,24.55,306.7,5.561,1.668,14.19,105.1167,12.37,13.65,35.01,0,110.4,13.27,13.17,268.7
"2010-05-05 01:13:30",84127,24.11,308.7,5.009,1.26,13.69,105.1051,12.34,13.59,35.36,0,110.4,13.27,13.14,270.7
"2010-05-05 01:14:00",84128,22.35,304.9,5.527,2.549,15.19,105.0789,12.27,13.66,35.95,0,110.4,13.27,13.07,266.9
"2010-05-05 01:14:30",84129,24.04,309.7,5.838,1.086,16.64,105.0682,12.25,13.68,36.01,0,110.4,13.27,13.04,271.7
"2010-05-05 01:15:00",84130,24.15,314.3,4.014,1.078,16.28,105.0394,12.17,13.63,36.52,0,110.4,13.27,12.97,276.3
"2010-05-05 01:15:30",84131,22.93,316.8,3.931,1.066,15.93,105.0206,12.13,13.59,37.15,0,110.4,13.27,12.92,278.8
"2010-05-05 01:16:00",84132,22.98,314.9,4.236,0.694,16.04,105.0028,12.08,13.54,37.01,0,110.4,13.27,12.87,276.9
"2010-05-05 01:16:30",84133,21.89,311.5,6.38,1.058,15.87,104.9741,12.01,13.5,37.42,0,110.4,13.27,12.80,273.5
"2010-05-05 01:17:00",84134,22.08,312.2,5.128,1.486,15.61,104.965,11.98,13.46,37.47,0,110.4,13.27,12.78,274.2
"2010-05-05 01:17:30",84135,18.78,312.2,6.535,1.248,15.45,104.938,11.91,13.39,38.19,0,110.4,13.27,12.71,274.2
"2010-05-05 01:18:00",84136,21.51,310.5,3.949,2.174,15.44,104.9239,11.88,13.35,38.1,0,110.4,13.27,12.67,272.5
"2010-05-05 01:18:30",84137,22.61,309,4.193,1.082,15.38,104.9045,11.83,13.3,37.38,0,110.4,13.27,12.62,271.0
"2010-05-05 01:19:00",84138,22.16,307.4,3.358,0.994,15.27,104.8848,11.78,13.27,37.62,0,110.4,13.27,12.57,269.4
"2010-05-05 01:19:30",84139,21.25,305.9,3.567,1.295,15.29,104.8716,11.74,13.21,38.14,0,110.4,13.27,12.54,267.9
"2010-05-05 01:20:00",84140,21.32,304.5,4.069,0.948,15.35,104.8571,11.71,13.17,38.41,0,110.4,13.27,12.50,266.5
"2010-05-05 01:20:30",84141,20.6,307.5,3.91,0.973,15.19,104.846,11.68,13.14,38.66,0,110.4,13.27,12.47,269.5
"2010-05-05 01:21:00",84142,20.64,305.7,4.164,0.78,15.22,104.8435,11.67,13.1,38.53,0,110.4,13.27,12.46,267.7
"2010-05-05 01:21:30",84143,19.68,308.9,3.837,0.921,15.09,104.8243,11.62,13.05,39.08,0,110.4,13.27,12.42,270.9
"2010-05-05 01:22:00",84144,16.75,314.5,7.653,1.16,15.12,104.8236,11.62,13.02,39.49,0,110.4,13.27,12.41,276.5
"2010-05-05 01:22:30",84145,17.71,315.6,4.61,1.892,15,104.7987,11.56,12.93,39.83,0,110.4,13.27,12.35,277.6
"2010-05-05 01:23:00",84146,17.24,305.3,8.49,1.411,12.56,104.8012,11.56,12.75,39.54,0,110.4,13.27,12.36,267.3
"2010-05-05 01:23:30",84147,17.16,300.5,7.003,1.073,11.58,104.7769,11.5,12.68,39.67,0,110.4,13.27,12.29,262.5
"2010-05-05 01:24:00",84148,17.85,306,9.04,2.008,12.61,104.7697,11.48,12.63,39.38,0,110.4,13.27,12.28,268.0
"2010-05-05 01:24:30",84149,19.72,312.9,5.338,1.367,15.88,104.7604,11.46,12.83,39.56,0,110.4,13.27,12.25,274.9
"2010-05-05 01:25:00",84150,18.9,313.5,3.518,1.081,16.34,104.7364,11.4,12.81,39.47,0,110.4,13.28,12.19,275.5
"2010-05-05 01:25:30",84151,20.05,316.2,4.666,1.078,16.25,104.7361,11.4,12.78,39.73,0,110.4,13.28,12.19,278.2
"2010-05-05 01:26:00",84152,17.28,315.9,6.416,1.027,15.57,104.7282,11.38,12.69,40.08,0,110.4,13.28,12.17,277.9
"2010-05-05 01:26:30",84153,15.49,312.6,6.187,1.659,13.72,104.7031,11.31,12.65,40.5,0,110.4,13.28,12.10,274.6
"2010-05-05 01:27:00",84154,13.18,303.9,6.248,1.6,11.62,104.7023,11.31,12.49,40.68,0,110.3,13.28,12.10,265.9
"2010-05-05 01:27:30",84155,14.42,311.2,7.284,1.372,12.9,104.6983,11.3,12.4,40.54,0,110.3,13.28,12.09,273.2
"2010-05-05 01:28:00",84156,13.78,308.4,6.488,0.684,12.79,104.6741,11.24,12.55,40.77,0,110.3,13.29,12.03,270.4
"2010-05-05 01:28:30",84157,14.37,316.9,5.64,1.135,16.15,104.6685,11.22,12.62,40.84,0,110.3,13.29,12.02,278.9
"2010-05-05 01:29:00",84158,15.36,314.3,5.279,1.257,15.5,104.6685,11.22,12.57,40.98,0,110.3,13.29,12.02,276.3
"2010-05-05 01:29:30",84159,17.23,313.9,6.459,1.52,14.72,104.6603,11.2,12.56,40.64,0,110.3,13.29,11.99,275.9
"2010-05-05 01:30:00",84160,16.07,314.5,7.48,1.576,14.42,104.6372,11.14,12.47,40.66,0,110.3,13.29,11.93,276.5
"2010-05-05 01:30:30",84161,15.81,312.5,7.147,1.293,13.17,104.6346,11.14,12.39,40.84,0,110.3,13.29,11.93,274.5
"2010-05-05 01:31:00",84162,15.7,307,3.716,1.081,11.71,104.6346,11.14,12.28,40.67,0,110.3,13.3,11.93,269.0
"2010-05-05 01:31:30",84163,18.04,313.9,7.886,1.919,15.52,104.6191,11.1,12.48,40.73,0,110.3,13.3,11.89,275.9
"2010-05-05 01:32:00",84164,17.02,322.1,3.856,1.098,15.77,104.6014,11.05,12.53,41.11,0,110.3,13.3,11.84,284.1
"2010-05-05 01:32:30",84165,16.51,321.7,4.166,0.991,16.35,104.6017,11.05,12.49,41.33,0,110.3,13.3,11.84,283.7
"2010-05-05 01:33:00",84166,15.39,318,6.555,1.527,14.58,104.6029,11.06,12.38,41.26,0,110.3,13.3,11.85,280.0
"2010-05-05 01:33:30",84167,14.67,307.7,5.961,0.75,11.69,104.6019,11.05,12.21,41.29,0,110.3,13.3,11.84,269.7
"2010-05-05 01:34:00",84168,15.67,310.1,7.077,1.603,13.02,104.5865,11.01,12.29,41.39,0,110.3,13.3,11.80,272.1
"2010-05-05 01:34:30",84169,17.5,314.8,6.632,1.441,14.42,104.5794,11,12.21,40.96,0,110.3,13.3,11.79,276.8
"2010-05-05 01:35:00",84170,18.59,314.5,5.758,1.35,15.68,104.5794,11,12.4,40.25,0,110.3,13.3,11.79,276.5
"2010-05-05 01:35:30",84171,19.11,317.7,2.89,0.935,16.18,104.5853,11.01,12.38,40.43,0,110.3,13.3,11.80,279.7
"2010-05-05 01:36:00",84172,19.49,317.7,3.938,0.905,15.84,104.5868,11.01,12.37,40.96,0,110.3,13.3,11.81,279.7
"2010-05-05 01:36:30",84173,18.99,313.4,6.743,1.575,14.85,104.5865,11.01,12.29,40.88,0,110.3,13.3,11.80,275.4
"2010-05-05 01:37:00",84174,18.6,314.5,6.56,1.41,14.19,104.5787,10.99,12.3,40.96,0,110.3,13.3,11.78,276.5
"2010-05-05 01:37:30",84175,19.82,313.9,5.293,1.312,14.08,104.5661,10.96,12.25,41.16,0,110.3,13.3,11.75,275.9
"2010-05-05 01:38:00",84176,19.34,311.8,8.44,1.64,13.67,104.5679,10.97,12.15,39.72,0,110.3,13.3,11.76,273.8
"2010-05-05 01:38:30",84177,21.14,312.5,5.821,1.217,15.6,104.5682,10.97,12.29,40.57,0,110.3,13.3,11.76,274.5
"2010-05-05 01:39:00",84178,21.19,312,6.154,1.21,15.66,104.5685,10.97,12.23,39.77,0,110.3,13.3,11.76,274.0
"2010-05-05 01:39:30",84179,20.58,312.4,5.496,1.322,15.48,104.5685,10.97,12.29,39.55,0,110.3,13.3,11.76,274.4
"2010-05-05 01:40:00",84180,20.34,311.5,6.178,1.483,14.63,104.5685,10.97,12.17,39.25,0,110.3,13.3,11.76,273.5
"2010-05-05 01:40:30",84181,21.09,313.5,6.199,1.07,14.87,104.5702,10.97,12.21,39.92,0,110.3,13.3,11.76,275.5
"2010-05-05 01:41:00",84182,20.15,314.3,4.521,1.821,15.14,104.5832,11.01,12.28,40.71,0,110.3,13.3,11.80,276.3
"2010-05-05 01:41:30",84183,21.15,315.3,3.556,0.964,15.97,104.59,11.02,12.33,40.66,0,110.3,13.3,11.81,277.3
"2010-05-05 01:42:00",84184,20.95,316.1,3.724,0.796,15.92,104.5945,11.03,12.33,40.54,0,110.3,13.3,11.83,278.1
"2010-05-05 01:42:30",84185,20.91,316.1,2.372,0.912,15.55,104.5976,11.04,12.29,40.37,0,110.3,13.3,11.83,278.1
"2010-05-05 01:43:00",84186,19.22,312.6,6.259,1.342,14.45,104.6007,11.05,12.26,40.66,0,110.3,13.3,11.84,274.6
"2010-05-05 01:43:30",84187,20.41,317.7,4.611,1.32,14.68,104.6018,11.05,12.31,40.92,0,110.3,13.3,11.84,279.7
"2010-05-05 01:44:00",84188,19.97,315.1,4.716,1.203,15.1,104.6015,11.05,12.34,40.89,0,110.3,13.3,11.84,277.1
"2010-05-05 01:44:30",84189,20.61,316.5,4.196,1.914,15.37,104.6012,11.05,12.36,40.93,0,110.3,13.3,11.84,278.5
"2010-05-05 01:45:00",84190,22.67,317,4.417,1.166,15.37,104.5979,11.04,12.33,40.85,0,110.3,13.3,11.83,279.0
"2010-05-05 01:45:30",84191,21.97,319.1,3.973,1.107,15.2,104.5964,11.04,12.33,41.03,0,110.3,13.3,11.83,281.1
"2010-05-05 01:46:00",84192,23.57,317.8,3.723,0.652,15.79,104.595,11.04,12.33,40.54,0,110.3,13.3,11.83,279.8
"2010-05-05 01:46:30",84193,22.78,320.3,4.241,0.966,15.55,104.5928,11.03,12.34,40.1,0,110.3,13.3,11.82,282.3
"2010-05-05 01:47:00",84194,22.99,316.7,4.654,0.678,15.62,104.5936,11.03,12.36,40.49,0,110.3,13.3,11.82,278.7
"2010-05-05 01:47:30",84195,22.96,314.5,3.214,0.921,15.67,104.5931,11.03,12.33,40.39,0,110.3,13.3,11.82,276.5
"2010-05-05 01:48:00",84196,21.88,315.6,4.054,0.69,15.67,104.5939,11.03,12.33,40.27,0,110.3,13.3,11.82,277.6
"2010-05-05 01:48:30",84197,22.16,316.7,3.203,1.189,15.44,104.5947,11.04,12.35,40.39,0,110.3,13.3,11.83,278.7